Location: Johnson City
(36.3130°N, 82.3540°W)
Time: 14:13:12
(UTC-05:00)

Envisat - Visible Passes

Search period start: 15 December 2019 00:00
Search period end: 25 December 2019 00:00
Orbit: 764 x 766 km, 98.1° (Epoch: 15 December)

Date Brightness Start Highest point End Pass type
(mag) Time Alt. Az. Time Alt. Az. Time Alt. Az.
15 Dec 4.8 06:39:19 10° NNE 06:43:59 36° E 06:48:37 10° SSE visible
15 Dec 3.5 17:51:19 10° SE 17:55:55 37° ENE 18:00:33 10° N visible
15 Dec 5.4 19:31:06 10° SW 19:34:59 22° W 19:38:55 10° NW visible
16 Dec 6.0 06:04:00 10° NE 06:06:58 15° E 06:09:54 10° SE visible
16 Dec 3.8 18:53:07 10° S 18:58:02 52° W 19:03:01 10° NNW visible
17 Dec 3.5 07:04:28 10° NNE 07:09:32 67° E 07:14:34 10° S visible
17 Dec 2.9 18:16:17 10° SSE 18:21:17 67° ENE 18:26:20 10° N visible
17 Dec 6.2 19:58:54 10° WSW 20:00:43 12° W 20:02:33 10° WNW visible
18 Dec 5.3 06:28:18 10° NE 06:32:39 28° E 06:36:58 10° SSE visible
18 Dec 3.8 17:40:25 10° SE 17:44:43 29° ENE 17:49:03 10° N visible
18 Dec 5.0 19:19:18 10° SSW 19:23:38 28° W 19:28:01 10° NW visible
19 Dec 6.3 05:53:50 10° ENE 05:55:34 12° E 05:57:18 10° ESE visible
19 Dec 3.3 18:41:43 10° S 18:46:45 68° WSW 18:51:49 10° NNW visible
20 Dec 4.0 06:53:17 10° NNE 06:58:15 51° E 07:03:10 10° S visible
20 Dec 3.1 18:05:09 10° SSE 18:10:03 51° ENE 18:14:58 10° N visible
20 Dec 5.9 19:46:21 10° SW 19:49:19 16° W 19:52:20 10° NW visible
21 Dec 5.7 06:17:24 10° NE 06:21:18 22° E 06:25:10 10° SE visible
21 Dec 4.5 19:07:39 10° SSW 19:12:18 36° W 19:16:59 10° NNW visible
22 Dec 3.0 18:30:24 10° SSE 18:35:28 87° WSW 18:40:34 10° NNW visible
23 Dec 4.6 06:42:10 10° NNE 06:46:56 40° E 06:51:40 10° SSE visible
23 Dec 3.4 17:54:07 10° SE 17:58:49 40° ENE 18:03:33 10° N visible
23 Dec 5.5 19:34:15 10° SW 19:37:57 20° W 19:41:40 10° NW visible
24 Dec 6.0 06:06:39 10° NE 06:09:56 17° E 06:13:11 10° SE visible
24 Dec 4.0 18:56:07 10° S 19:00:59 47° W 19:05:53 10° NNW visible
